Location: Newark
(45.9456°N, 15.4064°E)
Time: 13:56:37
(UTC+00:00)

A-11 Canister half - All Passes

Search period start: 29 January 2020 00:00
Search period end: 08 February 2020 00:00
Orbit: 1525 x 1684 km, 47.3° (Epoch: 28 January)

Date Brightness Start Highest point End Pass type
(mag) Time Alt. Az. Time Alt. Az. Time Alt. Az.
29 Jan - 12:53:01 10° SSE 12:57:01 13° ESE 13:01:01 10° E daylight
29 Jan - 14:51:23 10° SSW 15:00:05 47° SE 15:08:56 10° ENE daylight
29 Jan - 16:55:12 10° WSW 17:04:35 89° SSE 17:14:14 10° ENE visible
29 Jan - 19:00:25 10° W 19:09:55 86° N 19:19:44 10° E visible
29 Jan - 21:05:30 10° WNW 21:14:49 60° SSW 21:24:27 10° SE visible
29 Jan - 23:11:40 10° W 23:18:27 22° SW 23:25:24 10° S night (unlit)
30 Jan - 12:32:08 10° SE 12:35:30 12° ESE 12:38:52 10° E daylight
30 Jan - 14:29:52 10° SSW 14:38:30 45° SE 14:47:16 10° ENE daylight
30 Jan - 16:33:35 10° WSW 16:42:56 87° SSE 16:52:34 10° ENE visible
30 Jan - 18:38:47 10° W 18:48:16 85° N 18:58:03 10° E visible
30 Jan - 20:43:51 10° WNW 20:53:12 62° SSW 21:02:51 10° SE visible
30 Jan - 22:49:53 10° W 22:56:53 23° SW 23:04:03 10° S visible
31 Jan - 12:11:28 10° SE 12:13:59 11° ESE 12:16:30 10° ESE daylight
31 Jan - 14:08:23 10° SSW 14:16:55 43° SE 14:25:35 10° ENE daylight
31 Jan - 16:11:57 10° WSW 16:21:18 86° SSE 16:30:54 10° ENE visible
31 Jan - 18:17:09 10° W 18:26:36 84° N 18:36:21 10° E visible
31 Jan - 20:22:14 10° WNW 20:31:35 64° SSW 20:41:14 10° SE visible
31 Jan - 22:28:08 10° W 22:35:20 24° SW 22:42:42 10° S visible
01 Feb - 11:51:20 10° SE 11:52:28 10° ESE 11:53:37 10° ESE daylight
01 Feb - 13:46:54 10° SSW 13:55:21 41° SE 14:03:54 10° ENE daylight
01 Feb - 15:50:20 10° WSW 15:59:40 84° SSE 16:09:13 10° ENE daylight
01 Feb - 17:55:31 10° W 18:04:57 84° N 18:14:40 10° E visible
01 Feb - 20:00:36 10° WNW 20:09:57 66° SSW 20:19:37 10° SE visible
01 Feb - 22:06:23 10° W 22:13:46 26° SW 22:21:19 10° S visible
02 Feb - 13:25:25 10° SSW 13:33:47 40° SE 13:42:14 10° ENE daylight
02 Feb - 15:28:44 10° WSW 15:38:02 83° SSE 15:47:33 10° ENE daylight
02 Feb - 17:33:52 10° W 17:43:17 83° N 17:52:59 10° E visible
02 Feb - 19:38:58 10° WNW 19:48:20 67° SSW 19:58:00 10° SE visible
02 Feb - 21:44:39 10° W 21:52:12 27° SW 21:59:55 10° S visible
03 Feb - 13:03:56 10° SSW 13:12:13 38° SE 13:20:32 10° ENE daylight
03 Feb - 15:07:06 10° WSW 15:16:24 81° SSE 15:25:54 10° ENE daylight
03 Feb - 17:12:14 10° W 17:21:38 83° N 17:31:18 10° E visible
03 Feb - 19:17:20 10° WNW 19:26:42 69° SSW 19:36:21 10° SE visible
03 Feb - 21:22:56 10° WNW 21:30:37 28° SW 21:38:31 10° S visible
04 Feb - 12:42:30 10° SSW 12:50:39 36° SE 12:58:51 10° ENE daylight
04 Feb - 14:45:30 10° WSW 14:54:47 80° SSE 15:04:14 10° ENE daylight
04 Feb - 16:50:35 10° W 16:59:58 83° N 17:09:37 10° E visible
04 Feb - 18:55:43 10° WNW 19:05:05 71° SSW 19:14:44 10° SE visible
04 Feb - 21:01:13 10° WNW 21:09:03 30° SW 21:17:05 10° S visible
05 Feb - 12:21:02 10° SSW 12:29:05 34° SE 12:37:09 10° ENE daylight
05 Feb - 14:23:52 10° WSW 14:33:09 78° SSE 14:42:35 10° ENE daylight
05 Feb - 16:28:56 10° W 16:38:19 83° N 16:47:56 10° E visible
05 Feb - 18:34:05 10° WNW 18:43:27 73° SSW 18:53:06 10° ESE visible
05 Feb - 20:39:31 10° WNW 20:47:28 31° SW 20:55:38 10° SSE visible
06 Feb - 11:59:36 10° SSW 12:07:32 33° SE 12:15:27 10° ENE daylight
06 Feb - 14:02:17 10° WSW 14:11:32 76° SSE 14:20:56 10° ENE daylight
06 Feb - 16:07:18 10° W 16:16:40 83° N 16:26:15 10° E daylight
06 Feb - 18:12:27 10° WNW 18:21:49 75° SSW 18:31:27 10° ESE visible
06 Feb - 20:17:50 10° WNW 20:25:53 33° SW 20:34:11 10° SSE visible
07 Feb - 11:38:11 10° SSW 11:45:58 31° SE 11:53:45 10° ENE daylight
07 Feb - 13:40:40 10° WSW 13:49:55 74° SSE 13:59:16 10° ENE daylight
07 Feb - 15:45:40 10° W 15:55:01 83° N 16:04:35 10° E daylight
07 Feb - 17:50:50 10° WNW 18:00:11 77° SSW 18:09:49 10° ESE visible
07 Feb - 19:56:09 10° WNW 20:04:19 34° SW 20:12:43 10° SSE visible
